ORBCOMM FM 26

Satellite information

Favourite Embed

Satellite Type and Status

PAYLOADIN ORBIT

Key statistics

Satellite ORBCOMM FM 26 at a glance.

Uptime

9723

Days in orbit

Revolutions

≈ 14.4

Per day

Orbit

LEO

Low Earth Orbit

Inclination

45.0

Latest

Satellite identification and parameters

Extended collection of information and parameters for ORBCOMM FM 26.

Object identification

Identified? True

Debris? False

Object name: ORBCOMM FM 26

International designator: 1998-053F

Object number (NORAD): 25480

Object ID (CCSDS): 25480

Country: ORBITAL TELECOMMUNICATIONS SATELLITE (GLOBALSTAR) (ORB)

Current information (Y/N): Y

RCS size: LARGE

Orbital parameters

Period: 100.205 minutes

Inclination: 45.0061 deg

SMA: 7146.384 km

Apoapsis: 772.255 km

Periapsis: 764.243 km

RAAN: 99.1436 deg

Eccentricy: 0.0005606

Argument of periapsis: 35.1709 deg

Mean anomaly: 324.9508 deg

Mean motion: 14.37054465 rev/day

Mean motion (dot): 0.00001338 rev/day2

B* drag term: 0.00049406 1/REarth

Two-line elements (TLE)

Creation date: May 7, 2025, 3:14 a.m.

Reference frame: TEME

Reference center: EARTH

Epoch: May 6, 2025, 10:14 p.m. UTC

TLE line 0: 0 ORBCOMM FM 26

TLE line 1: 1 25480U 98053F 25126.92668475 .00001338 00000-0 49406-3 0 9998

TLE line 2: 2 25480 45.0061 99.1436 0005606 35.1709 324.9508 14.37054465391712

Live tracking on map

Real-time ground track for satellite ORBCOMM FM 26.

In-orbit conjunctions

A list of the most updated potential collisions computed for object ORBCOMM FM 26.

Target Orbit TCA Probability of collision Miss distance Type
FENGYUN 1C DEB SSO 2025-03-20 07:27:04 0.0001587054 151.0 (m) DEBRIS
FENGYUN 1C DEB SSO 2025-01-22 12:51:15 0.0001088788 276.0 (m) DEBRIS
FENGYUN 1C DEB SSO 2024-10-31 11:32:11 0.000144394 112.0 (m) DEBRIS
COSMOS 2251 DEB LEO 2024-10-08 14:09:46 0.001800492 443.0 (m) DEBRIS
FENGYUN 1C DEB SSO 2024-09-02 10:13:24 0.0001807617 193.0 (m) DEBRIS

Associated space launch

ORBCOMM FM 26 was lifted into orbit during the mission ‘Pegasus XL HAPS | Orbcomm-C1 - C8’, on board a Pegasus XL HAPS space rocket.

The launch took place on Sept. 23, 1998, 5:06 a.m. from Wallops Flight Facility.

For more information about the launch, click the button.

Launch to space Pegasus XL HAPS | Orbcomm-C1 - C8
Pegasus XL HAPS | Orbcomm-C1 - C8

Agency: N/A

Status: Launch Successful

Launch date: Sept. 23, 1998, 5:06 a.m. UTC

Rocket: Pegasus XL HAPS

Launch pad: Wallops Flight Facility

Location: Air launch to orbit

...

Latest news about this satellite

There are no fresh news available about this satellite. Check back as we update our databases every day.


Newsletter sign-up

Weekly statistics, charts and insights to help you stay on top of the space industry.